| time (UTC) | temp C | wind direction | speed KPH | gust KPH | rain 1hr cm | rain 24hr cm | rain mn cm | humidity % | barometer mb |
| 20260504175333 | 21 | 29 | 8.0 | 11.3 | 0.00 | 0.00 | 0.00 | 37 | 1015.1 |
| 20260504174832 | 21 | 33 | 3.2 | 6.4 | 0.00 | 0.00 | 0.00 | 40 | 1015.1 |
| 20260504174329 | 21 | 42 | 3.2 | 3.2 | 0.00 | 0.00 | 0.00 | 39 | 1015.3 |
| 20260504173826 | 21 | 102 | 4.8 | 6.4 | 0.00 | 0.00 | 0.00 | 38 | 1015.4 |
| 20260504173323 | 21 | 347 | 4.8 | 4.8 | 0.00 | 0.00 | 0.00 | 37 | 1015.1 |
| 20260504172820 | 20 | 280 | 6.4 | 6.4 | 0.00 | 0.00 | 0.00 | 41 | 1015.3 |
| 20260504172316 | 20 | 270 | 6.4 | 9.7 | 0.00 | 0.00 | 0.00 | 38 | 1015.4 |
| 20260504171812 | 21 | 114 | 1.6 | 3.2 | 0.00 | 0.00 | 0.00 | 39 | 1015.3 |
| 20260504171309 | 20 | 144 | 6.4 | 11.3 | 0.00 | 0.00 | 0.00 | 38 | 1015.6 |
| 20260504170807 | 20 | 279 | 4.8 | 6.4 | 0.00 | 0.00 | 0.00 | 37 | 1015.5 |
| 20260504170303 | 20 | 323 | 3.2 | 3.2 | 0.00 | 0.00 | 0.00 | 37 | 1015.5 |
| 20260504160222 | 20 | 143 | 6.4 | 9.7 | 0.00 | 0.00 | 0.00 | 37 | 1016.4 |
| 20260504150653 | 18 | 304 | 4.8 | 4.8 | 0.00 | 0.00 | 0.00 | 43 | 1016.7 |
| 20260504150149 | 18 | 255 | 4.8 | 4.8 | 0.00 | 0.00 | 0.00 | 43 | 1016.8 |
| 20260504141119 | 16 | 350 | 3.2 | 3.2 | 0.00 | 0.00 | 0.00 | 55 | 1016.6 |
| 20260504140615 | 16 | 333 | 1.6 | 4.8 | 0.00 | 0.00 | 0.00 | 55 | 1016.8 |
| 20260504140111 | 16 | 135 | 4.8 | 6.4 | 0.00 | 0.00 | 0.00 | 54 | 1016.9 |
| 20260504130539 | 14 | 44 | 3.2 | 3.2 | 0.00 | 0.00 | 0.00 | 59 | 1017.3 |
| 20260504110426 | 5 | 41 | 0.0 | 0.0 | 0.00 | 0.00 | 0.00 | 83 | 1017.6 |
| 20260504100343 | 1 | 38 | 0.0 | 0.0 | 0.00 | 0.00 | 0.00 | 86 | 1017.6 |
| 20260504081737 | 2 | 39 | 0.0 | 0.0 | 0.00 | 0.00 | 0.00 | 83 | 1017.6 |
| 20260504081233 | 2 | 39 | 0.0 | 0.0 | 0.00 | 0.00 | 0.00 | 83 | 1017.7 |
| 20260504080730 | 2 | 44 | 0.0 | 0.0 | 0.00 | 0.00 | 0.00 | 83 | 1017.7 |
| 20260504080226 | 2 | 44 | 0.0 | 0.0 | 0.00 | 0.00 | 0.00 | 83 | 1017.6 |
| 20260504070154 | 3 | 42 | 0.0 | 0.0 | 0.00 | 0.00 | 0.00 | 81 | 1017.7 |
| 20260504060114 | 4 | 40 | 0.0 | 0.0 | 0.00 | 0.00 | 0.00 | 76 | 1017.5 |
| 20260504050542 | 5 | 38 | 0.0 | 0.0 | 0.00 | 0.00 | 0.00 | 71 | 1017.6 |
| 20260504045536 | 6 | 38 | 0.0 | 0.0 | 0.00 | 0.00 | 0.00 | 68 | 1017.6 |
| 20260504045032 | 6 | 39 | 0.0 | 0.0 | 0.00 | 0.00 | 0.00 | 66 | 1017.6 |
| 20260504044529 | 6 | 39 | 0.0 | 0.0 | 0.00 | 0.00 | 0.00 | 66 | 1017.7 |
| 20260504044026 | 6 | 39 | 0.0 | 0.0 | 0.00 | 0.00 | 0.00 | 66 | 1017.6 |
| 20260504043523 | 6 | 39 | 0.0 | 0.0 | 0.00 | 0.00 | 0.00 | 66 | 1017.6 |
| 20260504043021 | 6 | 39 | 0.0 | 0.0 | 0.00 | 0.00 | 0.00 | 66 | 1017.6 |
| 20260504042517 | 6 | 39 | 0.0 | 0.0 | 0.00 | 0.00 | 0.00 | 66 | 1017.6 |
| 20260504042014 | 6 | 39 | 0.0 | 0.0 | 0.00 | 0.00 | 0.00 | 66 | 1017.4 |
| 20260504041510 | 6 | 39 | 0.0 | 0.0 | 0.00 | 0.00 | 0.00 | 66 | 1017.4 |
| 20260504041006 | 6 | 39 | 0.0 | 0.0 | 0.00 | 0.00 | 0.00 | 66 | 1017.3 |
| 20260504040504 | 6 | 39 | 0.0 | 0.0 | 0.00 | 0.00 | 0.00 | 67 | 1017.3 |
| 20260504040000 | 6 | 39 | 0.0 | 0.0 | 0.00 | 0.00 | 0.00 | 68 | 1017.4 |
| 20260504035457 | 6 | 39 | 0.0 | 0.0 | 0.00 | 0.00 | 0.00 | 67 | 1017.1 |
| 20260504034953 | 6 | 39 | 0.0 | 0.0 | 0.00 | 0.00 | 0.00 | 66 | 1017.2 |
| 20260504034451 | 6 | 38 | 0.0 | 0.0 | 0.00 | 0.00 | 0.00 | 66 | 1017.1 |
| 20260504033948 | 6 | 37 | 0.0 | 0.0 | 0.00 | 0.00 | 0.00 | 66 | 1017.1 |
| 20260504033446 | 6 | 37 | 0.0 | 0.0 | 0.00 | 0.00 | 0.00 | 66 | 1017.2 |
| 20260504032943 | 6 | 37 | 0.0 | 0.0 | 0.00 | 0.00 | 0.00 | 66 | 1017.0 |
| 20260504032440 | 6 | 37 | 0.0 | 0.0 | 0.00 | 0.00 | 0.00 | 66 | 1017.1 |
| 20260504031937 | 6 | 37 | 0.0 | 0.0 | 0.00 | 0.00 | 0.00 | 65 | 1017.0 |
| 20260504031434 | 7 | 37 | 0.0 | 0.0 | 0.00 | 0.00 | 0.00 | 64 | 1017.0 |
| 20260504030930 | 7 | 37 | 0.0 | 0.0 | 0.00 | 0.00 | 0.00 | 64 | 1016.9 |
| 20260504030427 | 7 | 37 | 0.0 | 0.0 | 0.00 | 0.00 | 0.00 | 64 | 1016.9 |
| 20260504025923 | 7 | 37 | 0.0 | 0.0 | 0.00 | 0.00 | 0.00 | 63 | 1017.0 |
| 20260504025420 | 7 | 40 | 0.0 | 0.0 | 0.00 | 0.00 | 0.00 | 63 | 1017.0 |
| 20260504024917 | 7 | 40 | 0.0 | 0.0 | 0.00 | 0.00 | 0.00 | 63 | 1017.0 |
| 20260504024414 | 7 | 40 | 0.0 | 0.0 | 0.00 | 0.00 | 0.00 | 63 | 1017.1 |
| 20260504023911 | 7 | 40 | 0.0 | 0.0 | 0.00 | 0.00 | 0.00 | 63 | 1017.2 |
| 20260504023408 | 7 | 41 | 0.0 | 0.0 | 0.00 | 0.00 | 0.00 | 62 | 1017.1 |
| 20260504022903 | 7 | 41 | 0.0 | 0.0 | 0.00 | 0.00 | 0.00 | 62 | 1017.1 |
| 20260504022400 | 7 | 41 | 0.0 | 0.0 | 0.00 | 0.00 | 0.00 | 62 | 1017.1 |
| 20260504021856 | 7 | 42 | 0.0 | 0.0 | 0.00 | 0.00 | 0.00 | 61 | 1017.2 |
| 20260504021354 | 8 | 39 | 0.0 | 0.0 | 0.00 | 0.00 | 0.00 | 61 | 1017.2 |
| 20260504020851 | 8 | 40 | 0.0 | 0.0 | 0.00 | 0.00 | 0.00 | 60 | 1017.1 |
| 20260504020347 | 8 | 40 | 0.0 | 0.0 | 0.00 | 0.00 | 0.00 | 60 | 1017.1 |
| 20260504015844 | 8 | 41 | 0.0 | 0.0 | 0.00 | 0.00 | 0.00 | 58 | 1017.0 |
| 20260504015340 | 8 | 41 | 0.0 | 0.0 | 0.00 | 0.00 | 0.00 | 57 | 1017.1 |
| 20260504014836 | 8 | 41 | 0.0 | 0.0 | 0.00 | 0.00 | 0.00 | 57 | 1017.1 |
| 20260504014332 | 8 | 41 | 0.0 | 0.0 | 0.00 | 0.00 | 0.00 | 57 | 1016.9 |
| 20260504013830 | 9 | 41 | 0.0 | 0.0 | 0.00 | 0.00 | 0.00 | 56 | 1016.9 |
| 20260504013328 | 9 | 41 | 0.0 | 0.0 | 0.00 | 0.00 | 0.00 | 56 | 1016.8 |
| 20260504012824 | 9 | 42 | 0.0 | 0.0 | 0.00 | 0.00 | 0.00 | 55 | 1016.9 |
| 20260504012322 | 10 | 41 | 0.0 | 0.0 | 0.00 | 0.00 | 0.00 | 54 | 1016.8 |
| 20260504011819 | 10 | 41 | 0.0 | 0.0 | 0.00 | 0.00 | 0.00 | 54 | 1016.6 |
| 20260504011316 | 10 | 40 | 0.0 | 0.0 | 0.00 | 0.00 | 0.00 | 53 | 1016.6 |
| 20260504010811 | 10 | 40 | 0.0 | 0.0 | 0.00 | 0.00 | 0.00 | 53 | 1016.7 |
| 20260504010307 | 10 | 39 | 0.0 | 0.0 | 0.00 | 0.00 | 0.00 | 51 | 1016.5 |
| 20260504005804 | 10 | 38 | 0.0 | 0.0 | 0.00 | 0.00 | 0.00 | 51 | 1016.5 |
| 20260504005301 | 11 | 38 | 0.0 | 0.0 | 0.00 | 0.00 | 0.00 | 51 | 1016.5 |
| 20260504004759 | 11 | 37 | 0.0 | 0.0 | 0.00 | 0.00 | 0.00 | 48 | 1016.4 |
| 20260504004256 | 11 | 37 | 0.0 | 0.0 | 0.00 | 0.00 | 0.00 | 47 | 1016.4 |
| 20260504003752 | 11 | 37 | 0.0 | 0.0 | 0.00 | 0.00 | 0.00 | 45 | 1016.3 |
| 20260504003249 | 12 | 36 | 0.0 | 0.0 | 0.00 | 0.00 | 0.00 | 45 | 1016.3 |
| 20260504002746 | 12 | 47 | 0.0 | 0.0 | 0.00 | 0.00 | 0.00 | 45 | 1016.1 |
| 20260504002243 | 12 | 36 | 0.0 | 0.0 | 0.00 | 0.00 | 0.00 | 42 | 1016.0 |
| 20260504001741 | 13 | 25 | 0.0 | 0.0 | 0.00 | 0.00 | 0.00 | 41 | 1016.1 |
| 20260504001237 | 13 | 20 | 0.0 | 0.0 | 0.00 | 0.00 | 0.00 | 40 | 1016.1 |
| 20260504000734 | 13 | 17 | 0.0 | 1.6 | 0.00 | 0.00 | 0.00 | 40 | 1016.0 |
| 20260504000233 | 13 | 356 | 3.2 | 4.8 | 0.00 | 0.00 | 0.00 | 39 | 1015.7 |
| 20260503235729 | 13 | 23 | 1.6 | 3.2 | 0.00 | 0.00 | 0.00 | 39 | 1015.7 |
| 20260503235226 | 14 | 29 | 1.6 | 3.2 | 0.00 | 0.00 | 0.00 | 40 | 1015.9 |
| 20260503234724 | 14 | 6 | 0.0 | 1.6 | 0.00 | 0.00 | 0.00 | 37 | 1015.8 |
| 20260503234222 | 14 | 12 | 1.6 | 1.6 | 0.00 | 0.00 | 0.00 | 39 | 1015.8 |
| 20260503233718 | 15 | 19 | 1.6 | 3.2 | 0.00 | 0.00 | 0.00 | 36 | 1015.7 |
| 20260503233214 | 15 | 14 | 1.6 | 1.6 | 0.00 | 0.00 | 0.00 | 36 | 1015.6 |
| 20260503232711 | 15 | 24 | 1.6 | 3.2 | 0.00 | 0.00 | 0.00 | 35 | 1015.7 |
| 20260503232208 | 15 | 39 | 1.6 | 3.2 | 0.00 | 0.00 | 0.00 | 35 | 1015.6 |
| 20260503231707 | 15 | 292 | 6.4 | 9.7 | 0.00 | 0.00 | 0.00 | 35 | 1015.7 |
| 20260503231203 | 15 | 34 | 3.2 | 3.2 | 0.00 | 0.00 | 0.00 | 35 | 1015.7 |
| 20260503230659 | 15 | 294 | 4.8 | 9.7 | 0.00 | 0.00 | 0.00 | 34 | 1015.6 |
| 20260503230156 | 15 | 27 | 0.0 | 1.6 | 0.00 | 0.00 | 0.00 | 36 | 1015.4 |
| 20260503225654 | 15 | 315 | 3.2 | 4.8 | 0.00 | 0.00 | 0.00 | 34 | 1015.5 |
| 20260503225154 | 15 | 270 | 8.0 | 9.7 | 0.00 | 0.00 | 0.00 | 34 | 1015.3 |
| 20260503224651 | 16 | 15 | 4.8 | 4.8 | 0.00 | 0.00 | 0.00 | 34 | 1015.7 |
| 20260503224149 | 15 | 355 | 4.8 | 6.4 | 0.00 | 0.00 | 0.00 | 34 | 1015.4 |
| 20260503223647 | 16 | 24 | 3.2 | 4.8 | 0.00 | 0.00 | 0.00 | 34 | 1015.8 |
| 20260503223143 | 16 | 43 | 1.6 | 3.2 | 0.00 | 0.00 | 0.00 | 34 | 1015.6 |
| 20260503222640 | 15 | 318 | 9.7 | 12.9 | 0.00 | 0.00 | 0.00 | 33 | 1015.6 |
| 20260503222138 | 16 | 310 | 6.4 | 9.7 | 0.00 | 0.00 | 0.00 | 34 | 1015.6 |
| 20260503221636 | 16 | 347 | 3.2 | 6.4 | 0.00 | 0.00 | 0.00 | 33 | 1015.5 |
| 20260503221133 | 16 | 356 | 6.4 | 9.7 | 0.00 | 0.00 | 0.00 | 34 | 1015.3 |
| 20260503220630 | 16 | 25 | 1.6 | 1.6 | 0.00 | 0.00 | 0.00 | 32 | 1015.5 |
| 20260503220126 | 17 | 289 | 3.2 | 4.8 | 0.00 | 0.00 | 0.00 | 33 | 1015.4 |
| 20260503215624 | 16 | 302 | 6.4 | 9.7 | 0.00 | 0.00 | 0.00 | 32 | 1015.6 |
| 20260503215120 | 16 | 37 | 4.8 | 6.4 | 0.00 | 0.00 | 0.00 | 31 | 1015.4 |
| 20260503214619 | 16 | 315 | 6.4 | 12.9 | 0.00 | 0.00 | 0.00 | 31 | 1015.5 |
| 20260503214115 | 16 | 292 | 3.2 | 6.4 | 0.00 | 0.00 | 0.00 | 31 | 1015.2 |
| 20260503213614 | 16 | 27 | 3.2 | 4.8 | 0.00 | 0.00 | 0.00 | 31 | 1015.4 |
| 20260503213110 | 16 | 317 | 11.3 | 14.5 | 0.00 | 0.00 | 0.00 | 31 | 1015.4 |
| 20260503212608 | 16 | 277 | 11.3 | 14.5 | 0.00 | 0.00 | 0.00 | 30 | 1015.4 |
| 20260503212105 | 16 | 329 | 4.8 | 4.8 | 0.00 | 0.00 | 0.00 | 32 | 1015.5 |
| 20260503211602 | 16 | 13 | 1.6 | 1.6 | 0.00 | 0.00 | 0.00 | 32 | 1015.3 |
| 20260503211057 | 16 | 276 | 9.7 | 12.9 | 0.00 | 0.00 | 0.00 | 31 | 1015.5 |
| 20260503210554 | 15 | 359 | 3.2 | 4.8 | 0.00 | 0.00 | 0.00 | 33 | 1015.5 |
| 20260503210050 | 15 | 281 | 6.4 | 9.7 | 0.00 | 0.00 | 0.00 | 32 | 1015.5 |
| 20260503205547 | 15 | 36 | 8.0 | 9.7 | 0.00 | 0.00 | 0.00 | 32 | 1015.4 |
| 20260503205043 | 15 | 357 | 4.8 | 9.7 | 0.00 | 0.00 | 0.00 | 31 | 1015.6 |
| 20260503204540 | 15 | 250 | 8.0 | 11.3 | 0.00 | 0.00 | 0.00 | 34 | 1015.7 |
| 20260503204038 | 16 | 322 | 4.8 | 6.4 | 0.00 | 0.00 | 0.00 | 32 | 1015.6 |
| 20260503203535 | 15 | 337 | 11.3 | 16.1 | 0.00 | 0.00 | 0.00 | 33 | 1015.8 |
| 20260503203032 | 15 | 29 | 4.8 | 4.8 | 0.00 | 0.00 | 0.00 | 35 | 1015.6 |
| 20260503202529 | 15 | 332 | 6.4 | 11.3 | 0.00 | 0.00 | 0.00 | 35 | 1015.6 |
| 20260503202027 | 15 | 310 | 4.8 | 6.4 | 0.00 | 0.00 | 0.00 | 35 | 1016.0 |
| 20260503201525 | 15 | 16 | 4.8 | 6.4 | 0.00 | 0.00 | 0.00 | 34 | 1015.8 |
| 20260503201022 | 15 | 307 | 6.4 | 9.7 | 0.00 | 0.00 | 0.00 | 34 | 1016.0 |
| 20260503200518 | 15 | 346 | 3.2 | 4.8 | 0.00 | 0.00 | 0.00 | 36 | 1015.8 |
| 20260503200015 | 15 | 39 | 4.8 | 6.4 | 0.00 | 0.00 | 0.00 | 36 | 1015.8 |
| 20260503195513 | 15 | 355 | 4.8 | 4.8 | 0.00 | 0.00 | 0.00 | 35 | 1016.0 |
| 20260503195009 | 15 | 269 | 8.0 | 12.9 | 0.00 | 0.00 | 0.00 | 37 | 1016.1 |
| 20260503194506 | 15 | 22 | 3.2 | 4.8 | 0.00 | 0.00 | 0.00 | 33 | 1015.9 |
| 20260503194006 | 15 | 349 | 4.8 | 6.4 | 0.00 | 0.00 | 0.00 | 34 | 1016.2 |
| 20260503193503 | 14 | 266 | 6.4 | 12.9 | 0.00 | 0.00 | 0.00 | 37 | 1016.3 |
| 20260503192958 | 14 | 50 | 12.9 | 22.5 | 0.00 | 0.00 | 0.00 | 36 | 1016.2 |
| 20260503192455 | 14 | 353 | 8.0 | 12.9 | 0.00 | 0.00 | 0.00 | 34 | 1016.3 |
| 20260503191950 | 15 | 336 | 4.8 | 6.4 | 0.00 | 0.00 | 0.00 | 38 | 1016.3 |
| 20260503191448 | 14 | 288 | 8.0 | 11.3 | 0.00 | 0.00 | 0.00 | 36 | 1016.3 |
| 20260503190944 | 14 | 27 | 4.8 | 4.8 | 0.00 | 0.00 | 0.00 | 35 | 1016.1 |
| 20260503190442 | 14 | 316 | 11.3 | 14.5 | 0.00 | 0.00 | 0.00 | 35 | 1016.3 |
| 20260503185939 | 14 | 354 | 6.4 | 9.7 | 0.00 | 0.00 | 0.00 | 36 | 1016.3 |
| 20260503185435 | 13 | 333 | 14.5 | 17.7 | 0.00 | 0.00 | 0.00 | 36 | 1016.4 |
| 20260503184934 | 13 | 348 | 9.7 | 14.5 | 0.00 | 0.00 | 0.00 | 36 | 1016.5 |
| 20260503184431 | 13 | 262 | 14.5 | 22.5 | 0.00 | 0.00 | 0.00 | 35 | 1016.3 |
| 20260503183927 | 13 | 335 | 6.4 | 9.7 | 0.00 | 0.00 | 0.00 | 36 | 1016.7 |
| 20260503183424 | 13 | 261 | 8.0 | 12.9 | 0.00 | 0.00 | 0.00 | 34 | 1016.6 |
| 20260503182921 | 13 | 243 | 12.9 | 22.5 | 0.00 | 0.00 | 0.00 | 35 | 1016.7 |
| 20260503182420 | 13 | 330 | 6.4 | 6.4 | 0.00 | 0.00 | 0.00 | 35 | 1016.6 |
| 20260503181917 | 13 | 262 | 14.5 | 16.1 | 0.00 | 0.00 | 0.00 | 34 | 1016.6 |
| 20260503181414 | 13 | 285 | 14.5 | 17.7 | 0.00 | 0.00 | 0.00 | 35 | 1016.7 |
| 20260503180910 | 13 | 5 | 8.0 | 16.1 | 0.00 | 0.00 | 0.00 | 37 | 1016.9 |
| 20260503180408 | 12 | 72 | 14.5 | 20.9 | 0.00 | 0.00 | 0.00 | 36 | 1016.6 |
| 20260503175904 | 13 | 33 | 6.4 | 9.7 | 0.00 | 0.00 | 0.00 | 36 | 1016.7 |